Torna al catalogo

STARLINK-36101

AttivoComunicazioniVLEO
NORAD 66867·PAYLOAD·🇺🇸 United States

Lanciato Dec 2, 2025 da Cape Canaveral Space Force Station

Loading…

Prossimi Passaggi (prossime 24 ore)

TLE

AggiornatoSource: CelesTrak SupGP

Epoca: Sep 14, 2026, 20:59 UTC

1 66867C 25281V   26257.87479167  .00010579  00000+0  38327-3 0  2576
2 66867  43.0039 355.4109 0001640 277.7330 125.2099 15.27565783    19

Traccia STARLINK-36101 in tempo reale con AllMySat

Download on the App Store